{"data":{"norad_id":56105,"intl_designator":"2023-046N","name":"STARLINK-6066","alt_names":[],"object_type":"PAYLOAD","status":"ACTIVE","operator":null,"country":"US","launch_date":"2023-03-29","launch_site_code":"AFETR","launch_vehicle":null,"mission":null,"orbit_class":"UNKNOWN","rcs_meters":null,"size_class":null,"mass_kg":null,"dimensions":null,"purposes":["comms"],"wikipedia_slug":null,"has_3d_model":false,"image_url":null,"decayed_at":null,"tle_current":{"epoch":"2026-09-20T09:00:58.631904Z","epoch_age_seconds":119556,"freshness":"FRESH","line1":"1 56105U 23046N   26263.37567861  .00006859  00000+0  25853-3 0  9997","line2":"2 56105  42.9994 142.2825 0001477 262.5296  97.5388 15.27582200191802","mean_motion":15.275822,"eccentricity":0.0001477,"inclination_deg":42.9994,"raan_deg":142.2825,"arg_perigee_deg":262.5296,"mean_anomaly_deg":97.5388,"bstar":0.00025853,"rev_number":19180,"period_min":94.266612952154,"perigee_km":482.02911224271,"apogee_km":484.05590466951,"semimajor_km":6861.1795084561,"source":"CELESTRAK","updated_at":"2026-09-21T09:00:33.364125Z"}}}